| time (UTC) | temp C | wind direction | speed KPH | gust KPH | rain 1hr cm | rain 24hr cm | rain mn cm | humidity % | barometer mb |
| 20260509030049 | 13 | 0 | 1.6 | 6.4 | 0.00 | 0.00 | 0.00 | 74 | 1005.2 |
| 20260509024548 | 13 | 0 | 1.6 | 8.0 | 0.00 | 0.00 | 0.00 | 73 | 1005.3 |
| 20260509023059 | 14 | 0 | 1.6 | 8.0 | 0.00 | 0.00 | 0.00 | 71 | 1005.3 |
| 20260509021555 | 13 | 360 | 0.0 | 6.4 | 0.00 | 0.00 | 0.00 | 65 | 1005.3 |
| 20260509020100 | 14 | 0 | 0.0 | 0.0 | 0.00 | 0.00 | 0.00 | 62 | 1005.3 |
| 20260509014550 | 14 | 0 | 0.0 | 0.0 | 0.00 | 0.00 | 0.00 | 60 | 1005.1 |
| 20260509013055 | 15 | 0 | 0.0 | 3.2 | 0.00 | 0.00 | 0.00 | 59 | 1005.2 |
| 20260509011549 | 15 | 5 | 1.6 | 4.8 | 0.00 | 0.00 | 0.00 | 58 | 1005.2 |
| 20260509010049 | 16 | 0 | 0.0 | 3.2 | 0.00 | 0.00 | 0.00 | 55 | 1005.2 |
| 20260509004552 | 16 | 0 | 0.0 | 4.8 | 0.00 | 0.00 | 0.00 | 53 | 1005.2 |
| 20260509003100 | 17 | 0 | 0.0 | 8.0 | 0.00 | 0.00 | 0.00 | 52 | 1005.2 |
| 20260509001549 | 17 | 9 | 0.0 | 6.4 | 0.00 | 0.00 | 0.00 | 53 | 1005.3 |
| 20260509000054 | 17 | 0 | 0.0 | 6.4 | 0.00 | 0.00 | 0.00 | 54 | 1005.3 |
| 20260508234548 | 17 | 0 | 0.0 | 6.4 | 0.00 | 0.00 | 0.00 | 51 | 1005.3 |
| 20260508233048 | 18 | 0 | 1.6 | 9.7 | 0.00 | 0.00 | 0.00 | 49 | 1005.3 |
| 20260508231550 | 18 | 5 | 1.6 | 12.9 | 0.00 | 0.00 | 0.00 | 48 | 1005.3 |
| 20260508230057 | 18 | 9 | 4.8 | 12.9 | 0.00 | 0.00 | 0.00 | 48 | 1005.3 |
| 20260508224548 | 18 | 5 | 3.2 | 12.9 | 0.00 | 0.03 | 0.00 | 49 | 1005.5 |
| 20260508223054 | 18 | 5 | 3.2 | 9.7 | 0.00 | 0.03 | 0.00 | 49 | 1005.6 |
| 20260508221554 | 18 | 5 | 3.2 | 14.5 | 0.00 | 0.03 | 0.00 | 50 | 1005.5 |
| 20260508220050 | 19 | 5 | 3.2 | 14.5 | 0.00 | 0.03 | 0.00 | 49 | 1005.6 |
| 20260508214547 | 19 | 5 | 1.6 | 12.9 | 0.00 | 0.03 | 0.00 | 47 | 1005.6 |
| 20260508213049 | 19 | 5 | 1.6 | 8.0 | 0.00 | 0.03 | 0.00 | 47 | 1005.6 |
| 20260508211550 | 18 | 0 | 1.6 | 6.4 | 0.00 | 0.03 | 0.00 | 50 | 1005.7 |
| 20260508210050 | 19 | 360 | 0.0 | 8.0 | 0.00 | 0.03 | 0.00 | 45 | 1005.9 |
| 20260508204548 | 20 | 5 | 3.2 | 17.7 | 0.00 | 0.03 | 0.00 | 46 | 1005.7 |
| 20260508203052 | 20 | 5 | 4.8 | 16.1 | 0.00 | 0.03 | 0.00 | 48 | 1006.0 |
| 20260508201550 | 20 | 5 | 6.4 | 16.1 | 0.00 | 0.03 | 0.00 | 44 | 1006.4 |
| 20260508200052 | 20 | 9 | 6.4 | 14.5 | 0.00 | 0.03 | 0.00 | 43 | 1006.7 |
| 20260508194619 | 20 | 5 | 1.6 | 8.0 | 0.00 | 0.03 | 0.00 | 44 | 1006.8 |
| 20260508193106 | 20 | 9 | 4.8 | 14.5 | 0.00 | 0.03 | 0.00 | 45 | 1007.0 |
| 20260508191559 | 20 | 5 | 3.2 | 12.9 | 0.00 | 0.03 | 0.00 | 46 | 1007.0 |
| 20260508190051 | 19 | 0 | 0.0 | 12.9 | 0.00 | 0.03 | 0.00 | 46 | 1007.2 |
| 20260508184556 | 18 | 5 | 3.2 | 9.7 | 0.00 | 0.03 | 0.00 | 50 | 1007.4 |
| 20260508183051 | 18 | 5 | 4.8 | 9.7 | 0.00 | 0.03 | 0.00 | 47 | 1007.7 |
| 20260508181618 | 18 | 5 | 3.2 | 8.0 | 0.00 | 0.03 | 0.00 | 57 | 1007.9 |
| 20260508180058 | 18 | 5 | 4.8 | 17.7 | 0.00 | 0.03 | 0.00 | 57 | 1008.0 |
| 20260508174553 | 18 | 5 | 4.8 | 16.1 | 0.00 | 0.03 | 0.00 | 57 | 1008.3 |
| 20260508173055 | 17 | 360 | 9.7 | 17.7 | 0.00 | 0.03 | 0.00 | 61 | 1008.5 |
| 20260508171553 | 17 | 5 | 0.0 | 12.9 | 0.00 | 0.03 | 0.00 | 62 | 1008.8 |
| 20260508170051 | 17 | 5 | 1.6 | 6.4 | 0.00 | 0.03 | 0.00 | 63 | 1008.9 |
| 20260508164557 | 17 | 9 | 1.6 | 8.0 | 0.00 | 0.03 | 0.00 | 63 | 1009.2 |
| 20260508163054 | 17 | 5 | 4.8 | 8.0 | 0.00 | 0.03 | 0.00 | 61 | 1009.2 |
| 20260508161604 | 17 | 0 | 1.6 | 8.0 | 0.00 | 0.03 | 0.00 | 64 | 1009.5 |
| 20260508160054 | 16 | 5 | 4.8 | 11.3 | 0.00 | 0.03 | 0.00 | 64 | 1009.5 |
| 20260508154558 | 16 | 5 | 1.6 | 11.3 | 0.00 | 0.03 | 0.00 | 66 | 1009.6 |
| 20260508153056 | 16 | 5 | 3.2 | 14.5 | 0.00 | 0.03 | 0.00 | 68 | 1009.7 |
| 20260508151602 | 16 | 0 | 0.0 | 8.0 | 0.00 | 0.03 | 0.00 | 68 | 1009.8 |
| 20260508150052 | 15 | 0 | 1.6 | 8.0 | 0.00 | 0.03 | 0.00 | 71 | 1009.8 |
| 20260508144549 | 14 | 5 | 0.0 | 6.4 | 0.00 | 0.03 | 0.00 | 74 | 1010.0 |
| 20260508143051 | 13 | 5 | 1.6 | 8.0 | 0.00 | 0.03 | 0.00 | 75 | 1010.2 |
| 20260508141550 | 12 | 5 | 1.6 | 8.0 | 0.00 | 0.03 | 0.00 | 79 | 1010.2 |
| 20260508140051 | 11 | 360 | 1.6 | 8.0 | 0.00 | 0.03 | 0.00 | 86 | 1010.3 |
| 20260508134556 | 10 | 360 | 1.6 | 4.8 | 0.00 | 0.03 | 0.00 | 90 | 1010.2 |
| 20260508133105 | 9 | 360 | 1.6 | 6.4 | 0.00 | 0.03 | 0.00 | 93 | 1010.2 |
| 20260508131555 | 8 | 0 | 3.2 | 4.8 | 0.00 | 0.03 | 0.00 | 94 | 1010.3 |
| 20260508130053 | 7 | 0 | 0.0 | 0.0 | 0.00 | 0.03 | 0.00 | 95 | 1010.1 |
| 20260508124555 | 7 | 5 | 0.0 | 3.2 | 0.00 | 0.03 | 0.00 | 94 | 1010.0 |
| 20260508123056 | 7 | 0 | 0.0 | 1.6 | 0.00 | 0.03 | 0.00 | 94 | 1010.4 |
| 20260508121555 | 6 | 0 | 0.0 | 1.6 | 0.00 | 0.03 | 0.00 | 94 | 1010.2 |
| 20260508120055 | 6 | 5 | 0.0 | 1.6 | 0.00 | 0.03 | 0.00 | 94 | 1010.1 |
| 20260508114554 | 6 | 0 | 0.0 | 0.0 | 0.00 | 0.03 | 0.00 | 94 | 1010.1 |
| 20260508113056 | 5 | 0 | 0.0 | 1.6 | 0.00 | 0.03 | 0.00 | 94 | 1010.1 |
| 20260508111554 | 5 | 0 | 0.0 | 0.0 | 0.00 | 0.03 | 0.00 | 94 | 1009.9 |
| 20260508110052 | 5 | 0 | 0.0 | 0.0 | 0.00 | 0.03 | 0.00 | 93 | 1009.8 |
| 20260508104551 | 5 | 0 | 0.0 | 0.0 | 0.00 | 0.03 | 0.00 | 93 | 1009.9 |
| 20260508103053 | 4 | 0 | 0.0 | 0.0 | 0.00 | 0.03 | 0.00 | 93 | 1010.0 |
| 20260508101552 | 3 | 0 | 0.0 | 1.6 | 0.00 | 0.03 | 0.00 | 93 | 1010.0 |
| 20260508100053 | 3 | 0 | 0.0 | 0.0 | 0.00 | 0.03 | 0.00 | 92 | 1010.0 |
| 20260508094603 | 3 | 5 | 0.0 | 1.6 | 0.00 | 0.03 | 0.00 | 92 | 1010.0 |
| 20260508093051 | 3 | 0 | 0.0 | 1.6 | 0.00 | 0.03 | 0.00 | 92 | 1010.2 |
| 20260508091600 | 3 | 0 | 0.0 | 0.0 | 0.00 | 0.03 | 0.00 | 91 | 1010.2 |
| 20260508090055 | 4 | 0 | 0.0 | 0.0 | 0.00 | 0.03 | 0.00 | 91 | 1010.2 |
| 20260508084554 | 5 | 0 | 0.0 | 0.0 | 0.00 | 0.03 | 0.00 | 91 | 1010.2 |
| 20260508083101 | 5 | 0 | 0.0 | 0.0 | 0.00 | 0.03 | 0.00 | 91 | 1010.3 |
| 20260508081608 | 5 | 0 | 0.0 | 0.0 | 0.00 | 0.03 | 0.00 | 90 | 1010.2 |
| 20260508080053 | 5 | 0 | 0.0 | 1.6 | 0.00 | 0.03 | 0.00 | 90 | 1010.3 |
| 20260508074552 | 5 | 0 | 0.0 | 1.6 | 0.00 | 0.03 | 0.00 | 90 | 1010.3 |
| 20260508073052 | 5 | 0 | 0.0 | 3.2 | 0.00 | 0.03 | 0.00 | 90 | 1010.4 |
| 20260508071550 | 5 | 0 | 0.0 | 1.6 | 0.00 | 0.03 | 0.00 | 89 | 1010.6 |
| 20260508070101 | 6 | 0 | 0.0 | 3.2 | 0.00 | 0.03 | 0.00 | 90 | 1010.6 |
| 20260508064549 | 6 | 0 | 0.0 | 0.0 | 0.00 | 0.03 | 0.00 | 88 | 1010.7 |
| 20260508063055 | 6 | 0 | 0.0 | 0.0 | 0.00 | 0.03 | 0.00 | 87 | 1010.6 |
| 20260508061551 | 6 | 0 | 0.0 | 1.6 | 0.00 | 0.03 | 0.00 | 88 | 1010.6 |
| 20260508060056 | 6 | 0 | 0.0 | 0.0 | 0.00 | 0.03 | 0.00 | 87 | 1010.8 |
| 20260508054554 | 6 | 0 | 0.0 | 0.0 | 0.00 | 0.03 | 0.00 | 84 | 1010.7 |
| 20260508053058 | 7 | 0 | 0.0 | 0.0 | 0.00 | 0.03 | 0.00 | 82 | 1010.6 |
| 20260508051554 | 8 | 0 | 0.0 | 3.2 | 0.00 | 0.03 | 0.00 | 82 | 1010.5 |
| 20260508050057 | 8 | 0 | 0.0 | 4.8 | 0.00 | 0.03 | 0.00 | 81 | 1010.6 |
| 20260508044605 | 8 | 5 | 1.6 | 4.8 | 0.00 | 0.03 | 0.03 | 80 | 1010.5 |
| 20260508043107 | 8 | 5 | 1.6 | 4.8 | 0.00 | 0.03 | 0.03 | 79 | 1010.4 |
| 20260508041554 | 9 | 5 | 1.6 | 4.8 | 0.00 | 0.03 | 0.03 | 77 | 1010.3 |
| 20260508034557 | 8 | 5 | 1.6 | 8.0 | 0.00 | 0.03 | 0.03 | 78 | 1010.2 |
| 20260508033050 | 8 | 360 | 1.6 | 6.4 | 0.00 | 0.03 | 0.03 | 81 | 1010.1 |
| 20260508031554 | 7 | 0 | 0.0 | 0.0 | 0.00 | 0.03 | 0.03 | 82 | 1010.2 |